MORDOVIA-IOT (RS50S)

Last updated on Fri May 09 2025 00:03:04 GMT+0000 (Coordinated Universal Time)

1 61765U 24199AG 25128.55814670 .00034474 00000+0 86972-3 0 9990 2 61765 97.3592 358.4117 0008141 290.5317 69.5055 15.39743771 72109
UTC large
Height (km)
Speed (km/s)
/
Latitude / Longitude
Inclination (degrees)
Orbital Period (minutes)
Azimuth
Elevation
Range (km)
Doppler Factor

Next 0 passes for location: London (51.5072 / 0.1276)

Sorry there are no passes over London.